Home > Time Zones > World Clock > Weather > Russia > Perm > Past weeks

Flag for Russia Weather past 2 weeks in Perm, Russia

Now
48 °F

Clear.


Feels Like: 48 °F
Forecast: 49 / 72 °F
Wind: 1 mph from North

Location: Perm'/Bolshoe Savino

Current Time: May 23, 2015 at 4:46:50 AM

Latest Report: May 23, 2015 at 4:00 AM


Visibility: 10 mi

Pressure: 29.92 "Hg

Humidity: 58%

Dew point: 34 °F

Location of PermLocation

Historic Weather in Perm — Graph

°F

Perm temperature yesterday

Maximum temperature yesterday: 70 °F (at 5:00 PM)
Minimum temperature yesterday: 45 °F (at 6:00 AM)
Average temperature yesterday: 59 °F

Past Weeks' High & Low Weather Summary

 TemperatureHumidityPressure
High72 °F (May 13, 1:30 PM)100% (May 16, 9:00 PM)30.24 "Hg (May 16, 9:00 PM)
Low27 °F (May 8, 4:00 AM)12% (May 22, 3:30 PM)29.27 "Hg (May 17, 2:00 PM)
Average54 °F58%29.82 "Hg
* Reported May 8 3:00 AM — May 23 3:30 AM, Perm, Weather by CustomWeather, © 2015

Note: Actual official high and low records may vary slightly from our data, if they occured in-between our weather recording intervals... More about our weather records

Advertising

Perm weather history for previous 24 hours

 ConditionsComfort  
Time TempWeatherWind HumidityBarometerVisibility
3:30 AM
Sat, May 23
46 °FClear.1 mph66%29.92 "Hg10 mi
3:00 AM48 °FClear.1 mph54%29.92 "Hg10 mi
2:30 AM46 °FClear.3 mph62%29.95 "Hg10 mi
2:00 AM48 °FClear.No wind58%29.95 "Hg10 mi
1:30 AM50 °FClear.1 mph50%29.95 "Hg10 mi
1:00 AM50 °FPassing clouds.3 mph50%29.95 "HgN/A
12:30 AM48 °FClear.8 mph58%29.95 "Hg10 mi
12:00 AM46 °FClear.3 mph62%29.95 "Hg10 mi
11:30 PM
Fri, May 22
50 °FSunny.6 mph54%29.95 "Hg10 mi
11:00 PM48 °FSunny.6 mph62%29.95 "Hg10 mi
10:30 PM54 °FSunny.1 mph41%29.95 "Hg10 mi
10:00 PM57 °FSunny.3 mph36%29.95 "Hg10 mi
9:30 PM59 °FSunny.6 mph34%29.95 "Hg10 mi
9:00 PM61 °FSunny.6 mph34%29.95 "Hg10 mi
8:30 PM66 °FPassing clouds.3 mph26%29.95 "HgN/A
8:00 PM66 °FSunny.6 mph26%29.95 "Hg10 mi
7:30 PM68 °FSunny.6 mph20%29.95 "Hg10 mi
7:00 PM70 °FSunny.8 mph18%29.95 "Hg10 mi
6:30 PM70 °FSunny.8 mph16%29.95 "Hg10 mi
6:00 PM70 °FSunny.10 mph18%29.95 "Hg10 mi
5:30 PM70 °FSunny.10 mph18%29.98 "Hg10 mi
5:00 PM70 °FSunny.10 mph18%29.98 "Hg10 mi
4:30 PM68 °FSunny.13 mph16%29.98 "Hg10 mi
4:00 PM68 °FSunny.10 mph14%29.98 "Hg10 mi
3:30 PM68 °FSunny.10 mph12%29.98 "Hg10 mi
3:00 PM68 °FSunny.10 mph14%29.98 "Hg10 mi
2:30 PM66 °FSunny.13 mph15%29.98 "Hg10 mi
2:00 PM68 °FSunny.13 mph21%29.98 "Hg10 mi
1:30 PM66 °FSunny.15 mph21%29.98 "Hg10 mi
1:00 PM64 °FSunny.13 mph19%29.98 "Hg10 mi
12:30 PM64 °FSunny.13 mph24%29.98 "Hg10 mi
12:00 PM64 °FSunny.15 mph24%29.98 "Hg10 mi
11:30 AM64 °FSunny.10 mph30%29.95 "Hg10 mi
11:00 AM64 °FPassing clouds.6 mph34%29.95 "HgN/A
10:30 AM61 °FPassing clouds.3 mph34%29.98 "HgN/A
10:00 AM61 °FPassing clouds.3 mph34%29.98 "HgN/A
9:30 AM59 °FPassing clouds.3 mph36%29.98 "HgN/A
9:00 AM57 °FSunny.1 mph41%29.98 "Hg10 mi
8:30 AM57 °FSunny.1 mph44%29.98 "Hg10 mi
8:00 AM55 °FSunny.1 mph67%29.98 "Hg10 mi
7:30 AM52 °FSunny.3 mph72%29.95 "Hg10 mi
7:00 AM50 °FSunny.1 mph82%29.95 "Hg10 mi
6:30 AM46 °FClear.1 mph87%29.95 "Hg10 mi
6:00 AM45 °FClear.3 mph87%29.95 "Hg10 mi
5:30 AM46 °FClear.No wind82%29.92 "Hg10 mi
5:00 AM46 °FClear.1 mph82%29.92 "Hg10 mi
4:30 AM48 °FClear.6 mph76%29.92 "Hg10 mi
4:00 AM48 °FClear.6 mph82%29.89 "Hg10 mi
Weather by CustomWeather, © 2015

See weather overviewHow to use our weather pages